Regional Weather Roundup
Issued by NWS

Home | Current Version | Previous Version | Text Only | Print | Product List | Glossary Off
Versions: 1 2 3 4 5 6 7 8 9 10 11 12 13 14 15 16 17 18 19 20 21 22 23 24 25 26 27 28 29 30 31 32 33 34 35 36 37 38 39 40 41 42 43 44 45 46 47 48 49 50

264
ASUS43 KFSD 181302
RWRSD

WEATHER ROUNDUP FOR SOUTH DAKOTA
NATIONAL WEATHER SERVICE SIOUX FALLS SD
700 AM CST WED JAN 18 2017

NOTE: "FAIR" INDICATES FEW OR NO CLOUDS BELOW 12,000 FEET WITH NO
SIGNIFICANT WEATHER AND/OR OBSTRUCTIONS TO VISIBILITY.


SDZ001>005-009-010-012>017-181400-
NORTHWEST AND NORTH CENTRAL SOUTH DAKOTA

CITY           SKY/WX    TMP DP  RH WIND       PRES   REMARKS
BUFFALO          N/A     36  22  56 W21       29.69F
FAITH            N/A     26  19  74 S9        29.79S WCI  17
MOBRIDGE       CLOUDY    17  10  74 SE8       29.78S WCI   7
$$

SDZ012>016-024>037-041>051-057-063-072>074-181400-
SOUTHWEST AND SOUTH CENTRAL SOUTH DAKOTA

CITY           SKY/WX    TMP DP  RH WIND       PRES   REMARKS
RAPID CTY ARPT CLOUDY    27  18  69 CALM      29.79F
PIERRE         CLOUDY    16  11  80 CALM      29.83R
CUSTER         CLOUDY    36  20  52 W8        29.86F
ELLSWORTH AFB  CLOUDY    32  21  64 SW5       29.78F WCI  27
PHILIP         CLOUDY    25  17  72 W14       29.82S WCI  13
PINE RIDGE     CLOUDY    27  16  63 SW9       29.88F WCI  18
SPEARFISH      FAIR      34  25  69 SW6       29.80S WCI  29
WINNER         FAIR      27  18  69 S3        29.83F
$$

SDZ004>011-016>023-039-040-181400-
NORTHEAST SOUTH DAKOTA

CITY           SKY/WX    TMP DP  RH WIND       PRES   REMARKS
ABERDEEN       CLOUDY    16  11  80 S10       29.83S WCI   4
WATERTOWN      CLOUDY    17  14  88 S7        29.84S WCI   8
BROOKINGS      CLOUDY    21  20  96 S6        29.86F WCI  13
SISSETON         N/A     37  21  52 W10G20    29.78R
$$

SDZ017-020-022-023-036>040-048>070-181400-
SOUTHEAST SOUTH DAKOTA

CITY           SKY/WX    TMP DP  RH WIND       PRES   REMARKS
SIOUX FALLS    CLOUDY    22  21  96 CALM      29.88F
HURON          CLOUDY    16  14  92 SE3       29.86S
CHAMBERLAIN    CLOUDY    19  17  93 CALM      29.84F
MITCHELL       CLOUDY    21  19  92 CALM      29.87F
YANKTON        CLOUDY    28  27  93 SE3       29.92R
$$

ABBREVIATIONS USED IN REMARKS
   TC - TEMPERATURE IN CELSIUS
  WCI - WIND CHILL INDEX
   HX - HEAT INDEX
  VSB - VISIBILITY





USA.gov is the U.S. government's official web portal to all federal, state and local government web resources and services.